STARLINK-1776

decayed
NORAD ID: 46682 Int'l Des: 2020-073 Owner: SPXS Country: US Constellation: starlink
LEOCIRCULAR
Gruppe

Über STARLINK-1776

Beschreibung wird geladen...

Höhenverlauf

Altitude vs Time

uPlot chart will show altitude changes over time

Zweizeiliger Elementsatz

1 46682U 20073N 25037.71560852 .08473893 12276-4 92856-3 0 9996
2 46682 53.0273 199.1192 0006955 276.2720 182.8929 16.36432438238317
Epoch: 6. Feb. 2025 • Age: 5153 hours

Aktueller Status

Position data unavailable
Startdatum 18. Okt. 2020
Alter 4.8 years
Verglühungsdatum 7. Feb. 2025
Typ internet

Technische Details

Klassifizierung Payload
Masse 260.00 kg
Trockenmasse 248.00 kg
Gesamtmasse 260.00 kg
Länge 0.20 m
Durchmesser 2.80 m
Spannweite 9.00 m
Form Box + pan
Hersteller SPXS
Bus-Typ Starlink
Phasenstatus Unknown Transfer Status
Besitzer/Staat SPXS/US

Große Konstellationen

Loading constellations...